Regional Weather Roundup
Issued by NWS Bismarck, ND

Home | Current Version | Previous Version | Text Only | Print | Product List | Glossary On
Versions: 1 2 3 4 5 6 7 8 9 10 11 12 13 14 15 16 17 18 19 20 21 22 23 24 25 26 27 28 29 30 31 32 33 34 35 36 37 38 39 40 41 42 43 44 45 46 47 48 49 50
000
ASUS43 KBIS 161710
RWRBIS

NWR BROADCAST TEXT
NATIONAL WEATHER SERVICE BISMARCK ND
1200 PM CDT TUE SEP 16 2014

NOTE: "FAIR" INDICATES FEW OR NO CLOUDS BELOW 12,000 FEET WITH NO
SIGNIFICANT WEATHER AND/OR OBSTRUCTIONS TO VISIBILITY.


CITY           SKY/WX    TMP DP  RH WIND       PRES   REMARKS
WILLISTON      SUNNY     64  39  39 CALM      30.01F
MINOT          SUNNY     66  42  41 N6        29.99F
MINOT AFB      SUNNY     64  44  48 VRB3      29.99F
BISMARCK       SUNNY     63  45  51 E3        30.01F
DICKINSON      SUNNY     66  48  52 NE5       29.98F
GARRISON         N/A     60  47  61 S6        30.00S
HETTINGER ARPT SUNNY     69  47  45 CALM      30.01F
JAMESTOWN      SUNNY     64  45  49 S12       30.02F
BEACH            N/A     66  46  48 CALM      30.01S
CARRINGTON     FAIR      66  43  42 S3        30.02F
CROSBY         FAIR      68  36  30 SW5       30.00S
HARVEY         FAIR      66  43  42 CALM      30.01S
HAZEN          FAIR      61  45  55 CALM      30.01S
LINTON         FAIR      63  46  55 SE3       30.00F
MANDAN         FAIR      59  45  58 CALM      30.01F
OAKES            N/A     66  45  45 S16       30.03F
RUGBY          FAIR      64  45  48 NW3       30.00F
STANLEY        FAIR      64  36  34 NE3       30.00F
TIOGA          FAIR      66  36  32 E3        30.03S
WATFORD CITY   FAIR      64  36  34 CALM      29.98F
$$

CITY           SKY/WX    TMP DP  RH WIND       PRES   REMARKS
GRAND FORKS    MOSUNNY   67  44  43 SW10      30.01F
GRAND FORKS AF SUNNY     68  44  42 SW8       30.01F
DEVILS LAKE    SUNNY     63  43  48 W6        30.01S
FARGO          SUNNY     65  43  44 SW10      30.05F
CANDO          FAIR      66  45  45 W6        30.01F
CAVALIER       FAIR      66  45  45 W6        29.99S
GRAFTON        FAIR      66  45  45 NW7       29.99F
GWINNER        SUNNY     66  45  45 S14       30.05F
LANGDON        FAIR      68  39  34 W6        30.00F
ROLLA            N/A     68  37  32 W5        30.00F
WALHALLA         N/A     64  41  42 N6        29.99S
$$

CITY           SKY/WX    TMP DP  RH WIND       PRES   REMARKS
ABERDEEN       SUNNY     61  46  57 S10       30.02F
MOBRIDGE       SUNNY     61  46  57 CALM      29.98F
BUFFALO          N/A     70  48  45 VRB3      29.94F
RAPID CITY     SUNNY     74  45  35 CALM      30.03S
GLASGOW        SUNNY     64  39  39 S9        29.98F
SIDNEY         SUNNY     61  43  51 CALM      30.01F
WOLF POINT     SUNNY     63  39  41 E3        29.99F
GLENDIVE       SUNNY     64  45  48 S3        30.02S
MILES CITY     SUNNY     61  46  57 CALM      30.01S
BAKER          SUNNY     70  50  49 CALM      30.01F
$$

CITY           SKY/WX    TMP DP  RH WIND       PRES   REMARKS
BILLINGS       MOSUNNY   68  42  38 SW16      30.02F
GREAT FALLS    MOSUNNY   68  38  33 SW6       29.99F
REGINA         MOSUNNY   68  45  42 SW7       29.96F
ESTEVAN        MOSUNNY   66  43  42 NW2       30.00F
$$




USA.gov is the U.S. government's official web portal to all federal, state and local government web resources and services.